Home   Weather   Moga   Past weeks
Flag for India

Past Weather in Moga, Punjab, India — Yesterday and Last 2 Weeks

Now
68 °F

Fog.


Feels Like: 68 °F
Forecast: 90 / 64 °F
Wind: No wind

Location: Amritsar Airport

Current Time: Oct 22, 2019 at 10:43:41 pm

Latest Report: Oct 22, 2019 at 10:00 pm


Visibility: 2 mi

Pressure: 29.86 "Hg

Humidity: 88%

Dew Point: 64 °F

Location of MogaLocation

Past Weather in Moga — Graph

°F

Moga Temperature Yesterday

Maximum temperature yesterday: 84 °F (at 2:00 pm)
Minimum temperature yesterday: 59 °F (at 6:30 am)
Average temperature yesterday: 71 °F

High & Low Weather Summary for the Past Weeks

 TemperatureHumidityPressure
High90 °F (Oct 12, 2:30 pm)100% (Oct 8, 5:00 am)30.12 "Hg (Oct 8, 5:00 am)
Low59 °F (Oct 19, 6:30 am)40% (Oct 12, 12:30 pm)29.80 "Hg (Oct 22, 3:00 pm)
Average75 °F74%29.94 "Hg
* Reported Oct 7 9:30 pm — Oct 22 9:30 pm, Moga. Weather by CustomWeather, © 2019

Note: Actual official high and low records may vary slightly from our data, if they occured in-between our weather recording intervals... More about our weather records

Advertising

Moga Weather History for the Previous 24 Hours

Scroll right to see more
 ConditionsComfort  
Time TempWeatherWind HumidityBarometerVisibility
9:30 pm
Tue, Oct 22
70 °FFog.No wind88%29.83 "Hg2 mi
9:00 pm72 °FFog.No wind83%29.83 "Hg2 mi
8:00 pm73 °FFog.No wind74%29.83 "Hg2 mi
7:30 pm73 °FHaze.No wind69%29.83 "Hg2 mi
7:00 pm77 °FHaze.2 mph65%29.80 "Hg2 mi
6:30 pm75 °FHaze.No wind65%29.80 "Hg2 mi
6:00 pm77 °FHaze.No wind61%29.80 "Hg2 mi
5:00 pm82 °FHaze.6 mph48%29.80 "Hg2 mi
4:30 pm84 °FHaze.8 mph48%29.80 "Hg2 mi
4:00 pm84 °FHaze.3 mph48%29.80 "Hg2 mi
3:30 pm86 °FHaze.10 mph43%29.80 "Hg2 mi
3:00 pm86 °FHaze.12 mph43%29.80 "Hg3 mi
2:30 pm86 °FHaze.10 mph43%29.83 "Hg3 mi
2:00 pm86 °FHaze.8 mph43%29.83 "Hg3 mi
1:30 pm84 °FClear.10 mph48%29.83 "Hg4 mi
1:00 pm84 °FClear.10 mph48%29.86 "Hg4 mi
12:30 pm84 °FClear.8 mph48%29.89 "Hg4 mi
12:00 pm82 °FClear.8 mph51%29.89 "Hg4 mi
11:30 am81 °FHaze.6 mph54%29.89 "Hg4 mi
11:00 am81 °FHaze.6 mph54%29.89 "Hg3 mi
9:30 am73 °FHaze.2 mph69%29.92 "Hg1 mi
9:00 am70 °FFog.6 mph78%29.92 "Hg1 mi
7:30 am61 °FCool.No wind94%29.89 "Hg1 mi
7:00 am61 °FCool.No wind88%29.89 "Hg1 mi
6:30 am61 °FCool.2 mph88%29.89 "Hg1 mi
6:00 am61 °FFog.No wind88%29.86 "Hg1 mi
5:30 am61 °FFog.No wind94%29.86 "Hg1 mi
5:00 am63 °FFog.No wind88%29.86 "Hg1 mi
4:30 am63 °FFog.No wind88%29.89 "Hg1 mi
4:00 am63 °FFog.No wind88%29.89 "Hg1 mi
3:00 am63 °FFog.No wind88%29.89 "Hg1 mi
2:30 am63 °FFog.No wind88%29.89 "Hg1 mi
2:00 am64 °FFog.No wind83%29.89 "Hg1 mi
1:30 am64 °FFog.No wind88%29.89 "Hg1 mi
1:00 am64 °FFog.No wind88%29.89 "Hg1 mi
12:30 am64 °FFog.No wind88%29.89 "Hg1 mi
12:00 am66 °FFog.No wind83%29.89 "Hg1 mi
11:30 pm
Mon, Oct 21
66 °FFog.No wind83%29.89 "Hg1 mi
11:00 pm68 °FFog.2 mph83%29.89 "Hg1 mi
10:30 pm68 °FFog.2 mph83%29.89 "Hg1 mi
10:00 pm70 °FFog.No wind83%29.89 "Hg1 mi
Weather by CustomWeather, © 2019

See weather overview